User: anonymous   Login
Location: Theydon Bois
(51.6750°N, 0.1050°E)
Time: 04:12:15
(UTC+00:00)
Language:

ERS-1 Rocket - Orbit

View from above orbital plane
View from above orbital plane
View from above satellite
View from above satellite

Ground track
Ground track

The orbit data is extracted from the following two-line orbital elements,

1 21610U 91050F   17344.28580545 +.00000005 +00000-0 +15501-4 0  9992
2 21610 098.5829 041.7131 0004119 127.6239 277.5945 14.40821996385194
Epoch (UTC): 10 December 2017 06:51:33
Eccentricity: 0.0004119
inclination: 98.5829°
perigee height: 753 km
apogee height: 759 km
right ascension of ascending node: 41.7131°
argument of perigee: 127.6239°
revolutions per day: 14.40821996
mean anomaly at epoch: 277.5945°
orbit number at epoch: 38519

The dashed part of the orbit path shows where the satellite is in the earth's shadow,  

DLR